Location: Atlantic Beach
(40.5890°N, 73.7290°W)
Time: 04:15:35
(UTC+00:00)

CZ-4B R/B - Pass Details

Date: 29 October 2020
Orbit: 389 x 462 km, 97.6° (Epoch: 23 November)

Event Time Altitude Azimuth Distance (km) Brightness Sun altitude
Rises 23:21:42 0° 354° (N) 2,372 5.1 -17.1°
Reaches altitude 10° 23:24:12 10° 333° (NNW) 1,487 4.3 -17.6°
Maximum altitude 23:26:18 17° 292° (WNW) 1,134 4.3 -17.9°
Drops below altitude 10° 23:28:22 10° 250° (WSW) 1,455 5.1 -18.3°
Sets 23:30:47 0° 228° (SW) 2,296 5.8 -18.8°
